Wind_Speed
17 16 15 14 13 13 13 12 12 12 12 12 12 13 13 13 13 13 13 13 13 12 13 13 13 12 13 13 13 12 12 13 13 13 13 12 12 11 11 11 11 11 11 12 12 12 12 13 13 13 14 13 13 13 13 12 11 11 12 12 12 11 10 10 10 10 12 13 13 13 14 14 15 16 17 18 18 18 18 18 17 16 16 16 17
18 17 16 16 15 14 14 13 13 13 12 12 12 13 13 13 14 14 13 13 13 13 14 14 14 14 14 14 14 14 13 13 13 13 13 13 13 12 12 12 11 11 11 12 12 12 12 12 12 13 13 13 13 13 12 11 11 10 11 10 10 11 11 11 11 11 11 12 13 14 15 15 15 16 17 18 18 18 17 17 16 15 15 15 15
18 18 17 17 16 16 16 15 14 14 13 13 13 13 13 13 13 13 13 13 13 14 14 15 15 15 14 14 15 14 14 14 14 13 13 13 13 13 13 13 12 12 12 12 12 12 12 12 12 12 12 11 12 12 12 12 11 10 10 10 10 11 11 12 13 12 11 12 13 14 15 15 15 16 17 17 18 17 16 15 14 13 13 14 14
17 18 18 18 18 17 17 16 15 15 14 14 14 14 14 14 13 13 13 13 13 14 14 15 15 15 15 15 15 15 15 15 14 14 14 14 14 14 14 14 13 13 13 13 13 13 13 13 13 13 12 12 12 13 13 13 13 12 11 11 11 11 12 13 13 13 13 13 13 14 15 15 15 16 17 16 15 14 14 13 12 11 11 12 12
17 18 19 19 19 19 18 18 17 16 16 15 15 15 15 15 14 14 14 14 14 14 14 14 15 15 15 15 15 15 15 15 15 15 15 15 15 15 15 14 14 14 14 14 14 14 14 14 14 14 13 13 13 13 14 14 14 13 13 13 13 13 13 13 13 14 15 14 13 13 14 14 14 15 16 15 12 11 11 12 12 11 9 10 12
17 18 18 19 20 20 20 19 18 18 18 17 17 16 16 16 15 15 15 15 15 14 14 14 14 14 14 15 16 16 16 16 16 16 16 16 16 15 15 15 15 15 15 15 15 14 14 14 14 14 14 14 14 14 14 14 14 14 14 14 14 14 13 13 14 15 15 14 13 13 13 13 13 13 14 15 13 11 10 10 11 12 11 11 13
19 19 19 19 19 20 21 21 20 20 19 19 18 18 18 17 17 17 17 16 16 15 15 15 14 14 14 15 16 17 17 17 17 17 17 16 16 16 16 16 16 16 15 16 15 15 15 15 15 15 15 15 14 14 14 14 14 14 15 15 15 15 14 14 15 15 14 13 13 13 12 12 12 12 13 15 14 14 13 11 11 13 14 14 15
21 21 20 20 19 19 19 20 20 21 21 20 20 20 19 18 18 18 18 18 17 16 16 16 16 16 16 16 16 17 18 17 17 17 17 16 16 16 16 17 17 17 17 17 17 16 16 16 16 16 16 15 15 14 14 14 14 14 15 16 16 16 16 16 16 16 15 14 13 14 13 12 12 13 14 16 16 16 17 16 14 15 16 16 17
22 22 22 21 19 19 19 19 20 21 22 22 21 21 20 19 19 19 19 19 18 18 18 18 18 18 18 17 18 18 18 18 17 17 17 17 17 17 17 18 18 18 18 18 18 18 17 17 17 16 16 16 15 15 15 15 15 14 14 15 16 16 16 17 18 18 17 15 15 15 15 14 15 15 15 17 18 17 18 18 18 19 19 19 19
24 23 23 22 21 20 20 20 20 21 22 22 22 22 21 21 20 20 20 20 20 20 20 20 20 20 19 19 20 20 20 20 19 19 19 19 19 19 19 20 19 19 19 19 19 19 19 19 18 17 17 17 16 16 16 16 15 14 14 15 16 17 18 19 20 20 18 17 17 18 17 17 18 18 18 18 19 19 19 20 21 22 23 22 21
25 24 23 23 22 22 22 22 22 22 22 22 22 22 22 22 22 21 21 21 21 21 21 22 21 21 21 21 22 21 21 21 21 21 20 20 20 20 21 21 20 20 20 20 20 19 20 20 19 19 19 19 18 17 17 17 16 16 15 16 17 18 18 19 19 19 19 19 20 21 21 20 20 21 20 20 20 21 21 22 23 24 25 24 22
26 25 23 24 24 24 24 23 23 22 22 21 21 22 22 22 22 22 22 22 22 22 22 22 22 22 22 23 24 23 22 22 21 21 21 21 21 21 21 21 21 21 21 21 20 20 20 20 21 21 21 21 20 20 20 19 18 18 17 18 18 19 19 19 19 20 21 21 22 23 23 23 23 22 22 21 22 23 23 24 25 26 26 26 25
26 26 25 25 25 26 26 25 25 24 24 24 23 23 22 22 22 22 22 22 22 23 22 22 23 23 24 24 24 24 23 22 21 21 21 21 21 21 21 22 22 22 22 21 21 20 21 22 23 23 22 22 22 22 22 21 21 20 20 20 20 21 21 21 22 22 23 23 24 24 25 25 25 25 25 24 24 24 25 26 26 27 27 27 27
28 29 29 28 27 27 27 26 26 26 25 25 24 23 23 23 23 23 23 23 23 23 22 23 23 24 24 24 24 24 24 23 22 22 22 22 22 23 23 24 24 23 23 22 22 22 23 23 24 24 24 23 23 23 23 23 23 23 23 23 23 23 24 24 24 25 25 25 25 25 26 26 26 26 27 27 27 27 28 28 28 28 28 28 29
30 31 29 27 26 27 26 26 26 26 25 25 24 24 24 23 23 23 24 25 25 25 24 24 24 24 24 23 23 23 24 24 24 24 24 24 24 25 25 25 26 26 26 25 25 24 25 25 25 25 25 25 25 25 25 25 26 26 26 26 26 26 26 26 26 26 26 26 26 26 27 27 27 27 27 27 28 29 29 29 29 30 30 30 30
27 28 28 26 24 23 24 25 26 25 25 24 23 23 24 23 23 23 24 26 26 26 26 26 25 25 24 23 23 23 24 24 24 24 24 25 25 26 26 26 27 28 28 28 27 27 27 27 27 27 27 27 27 27 27 27 27 27 27 27 27 27 27 27 27 27 27 27 27 27 28 28 28 28 28 28 29 29 29 30 30 30 30 29 28
21 22 25 25 24 23 23 25 27 26 26 24 23 24 24 24 24 23 24 26 27 28 28 27 27 26 26 25 25 25 25 26 26 25 26 26 26 27 27 27 28 28 29 28 28 28 28 28 28 28 27 27 27 27 28 28 28 28 27 27 27 27 26 26 27 27 27 27 28 28 29 29 29 29 29 29 29 28 27 27 26 26 26 26 24
17 17 22 24 24 24 25 28 29 28 26 25 25 26 27 27 26 26 26 27 28 30 30 29 28 27 28 28 27 27 27 27 27 27 27 28 28 29 29 29 29 30 30 30 29 29 29 29 28 28 28 28 28 29 29 29 29 29 28 28 28 27 27 28 28 29 29 29 29 30 30 30 29 29 29 29 27 26 24 23 23 24 24 24 22
17 19 23 25 24 23 24 27 29 26 24 25 28 30 31 30 28 28 30 31 31 33 33 32 32 31 30 29 29 29 29 29 29 29 29 29 29 30 31 32 32 32 32 32 32 31 31 30 30 31 31 31 31 31 31 32 32 32 31 30 30 29 29 29 30 30 30 30 30 30 29 28 28 27 27 26 25 24 24 24 24 24 24 24 23
22 23 25 25 24 23 23 25 26 25 24 26 28 28 28 28 27 29 31 33 34 36 36 36 35 35 34 33 31 31 31 32 32 32 32 32 32 33 34 34 35 36 36 35 35 34 33 33 33 33 33 33 33 33 33 33 34 34 34 33 32 30 29 29 29 29 29 28 28 27 26 25 25 25 25 25 25 26 26 27 26 26 25 25 25
22 24 26 26 26 26 25 25 24 23 24 26 26 25 25 26 27 30 33 36 38 39 39 38 37 37 38 37 36 35 34 34 35 35 35 35 36 38 39 37 38 40 39 37 36 36 36 35 34 35 36 36 36 35 35 35 34 34 34 33 31 29 28 27 26 26 25 24 22 22 21 22 22 24 25 26 27 28 29 29 28 27 27 26 26
21 23 25 25 24 24 25 25 24 23 24 25 25 25 25 25 28 31 33 36 41 41 40 40 39 39 39 38 39 39 39 39 39 40 40 40 40 43 43 42 42 42 40 38 37 37 37 36 35 36 36 35 36 36 35 34 33 32 31 30 28 26 25 24 22 21 20 19 19 20 21 22 24 25 26 28 29 29 30 30 30 29 29 28 27
20 21 21 20 20 20 20 21 21 21 24 26 25 24 24 25 30 33 31 30 33 35 37 38 38 38 38 38 39 40 41 42 43 44 45 44 44 46 45 43 43 43 40 39 39 38 37 36 35 36 36 37 38 35 29 27 29 28 27 26 24 23 22 20 18 18 19 20 21 22 23 25 26 27 28 28 29 30 30 30 30 30 30 29 29
19 20 19 17 17 17 19 22 23 24 25 26 24 23 24 26 31 32 28 25 26 27 30 32 33 33 35 36 38 41 42 44 45 47 49 49 47 48 48 46 45 43 38 36 38 37 34 31 30 30 28 27 27 23 18 20 23 23 23 23 22 20 19 19 19 20 21 22 23 25 26 27 28 29 30 30 29 29 29 29 29 28 29 29 29
16 18 18 17 17 18 20 22 23 24 26 27 26 25 26 29 31 30 27 27 27 26 27 29 31 31 32 34 37 40 42 45 43 39 39 40 40 42 43 41 39 38 34 31 30 28 26 23 23 22 20 17 14 13 15 19 21 20 21 20 19 19 19 20 21 23 24 25 26 27 28 29 30 31 31 31 30 29 28 28 28 27 27 27 27
12 14 14 14 14 15 16 16 16 18 21 24 26 29 30 29 26 24 24 25 24 22 22 23 24 24 24 25 27 28 31 33 30 22 20 23 24 25 26 25 26 28 29 28 25 23 22 22 21 19 18 17 15 14 16 17 17 18 19 18 19 20 22 23 24 26 27 27 28 29 30 30 30 31 31 31 31 30 28 27 27 26 26 26 26
9 10 10 9 8 9 10 11 12 13 13 14 16 22 25 23 18 16 18 19 17 15 16 16 16 16 17 17 18 18 19 19 17 15 15 17 19 19 19 18 20 23 25 26 25 24 23 22 20 18 17 17 16 15 15 15 16 17 19 20 22 23 25 26 27 28 29 29 29 29 29 29 29 29 30 31 31 30 29 27 27 26 25 25 25
3 4 5 5 4 5 6 7 9 9 9 9 10 13 17 18 14 13 15 16 15 15 16 16 16 17 17 17 17 17 17 16 15 15 17 17 17 18 18 17 18 20 22 23 23 23 22 21 20 18 17 17 16 15 15 16 18 20 22 23 25 26 27 29 29 30 30 30 30 29 29 29 29 29 29 29 29 29 28 27 27 27 26 25 25
4 3 2 2 3 4 4 4 6 7 7 8 9 11 13 14 13 13 14 15 16 17 16 16 17 18 19 20 19 18 18 17 16 17 17 17 17 17 17 16 17 18 19 20 20 19 19 19 18 16 16 16 17 17 19 20 22 24 25 27 28 29 30 30 30 31 31 31 31 31 30 30 30 29 29 29 29 28 28 27 27 27 27 27 26
4 4 3 1 1 2 2 2 2 3 4 6 7 9 11 12 12 12 14 15 16 17 17 17 18 19 20 21 21 21 20 19 18 17 17 17 18 19 19 19 19 19 18 18 19 18 18 18 18 17 18 19 20 21 22 23 25 27 28 29 30 30 31 31 30 31 31 31 32 32 31 31 30 29 29 29 29 28 28 28 28 28 27 27 27
2 3 2 0 1 1 1 0 0 0 1 2 4 5 7 8 9 10 11 12 13 14 15 15 16 17 18 19 19 19 19 18 19 19 18 18 18 20 21 21 21 21 20 20 20 20 20 20 21 21 21 22 23 24 25 27 28 29 29 30 30 30 30 30 30 31 31 32 31 31 31 30 30 29 29 29 29 29 29 29 29 29 29 29 28
3 3 3 3 3 3 3 2 2 1 0 1 2 3 4 6 8 9 10 11 12 13 13 14 15 15 16 16 16 16 16 17 18 19 20 20 20 20 21 21 21 22 22 22 22 22 23 23 24 24 25 26 27 27 28 29 29 29 29 29 30 30 30 30 30 31 31 31 30 30 30 30 29 29 29 29 29 29 29 29 30 30 30 30 29
5 5 5 5 5 5 5 5 4 4 3 2 2 2 4 5 7 8 9 11 12 13 14 15 15 16 15 15 16 16 16 17 18 19 21 22 23 24 23 23 23 23 23 23 23 23 23 24 25 26 26 27 27 27 28 28 28 28 28 29 29 30 30 31 31 31 31 30 30 30 30 30 30 30 30 29 29 29 29 29 30 30 30 30 30
8 7 7 7 6 6 6 6 6 5 5 4 3 3 4 5 6 7 9 10 11 12 13 14 15 15 15 15 16 16 16 17 18 18 19 21 23 24 25 25 26 27 28 26 25 24 24 25 25 25 26 26 26 26 26 26 26 26 27 27 28 29 30 31 31 31 32 32 32 31 31 32 32 32 31 31 31 30 30 30 30 30 30 30 31
11 10 10 9 9 8 8 7 7 7 6 6 5 5 6 7 7 8 9 10 11 12 12 13 14 15 15 16 16 16 17 17 18 19 19 20 20 22 23 24 25 27 28 29 27 26 25 24 24 25 25 25 25 26 26 26 26 27 27 27 28 28 29 30 31 31 32 32 32 33 33 33 33 33 33 33 33 32 32 32 32 32 31 32 32
15 14 14 14 13 13 13 13 12 11 11 10 9 9 8 9 10 10 11 11 12 13 14 14 15 15 16 16 17 18 19 19 20 21 21 21 22 22 22 23 24 25 26 26 26 25 25 25 25 25 25 25 26 26 27 27 28 28 28 29 29 29 30 30 31 31 32 33 33 33 33 34 34 34 34 34 34 34 34 34 34 34 34 34 34
20 19 18 19 19 18 18 18 18 18 17 16 16 15 14 13 13 13 13 14 14 15 16 17 17 18 18 19 19 20 20 21 22 23 23 23 24 24 24 25 25 26 26 26 26 26 26 26 26 26 27 27 27 28 28 29 29 30 31 31 31 32 32 32 32 32 33 33 34 34 34 35 35 35 35 35 35 35 35 35 36 36 36 36 36
24 23 23 23 23 23 22 22 22 22 22 21 21 20 20 19 19 18 18 18 18 18 19 19 20 21 22 22 22 22 23 23 24 24 25 25 25 26 26 26 27 27 27 27 27 28 28 28 28 28 29 29 29 30 30 31 31 32 33 33 34 34 34 34 34 34 34 34 35 35 35 36 36 36 36 36 35 35 36 36 37 37 37 37 38
24 25 25 25 25 24 24 23 23 23 23 22 22 21 21 20 20 20 20 21 21 21 21 21 21 22 23 23 23 24 24 24 25 25 25 25 26 26 27 27 27 28 28 28 28 28 29 29 29 29 30 30 31 31 32 32 33 34 34 34 35 35 36 36 36 36 36 36 35 35 36 36 36 37 37 37 36 36 37 37 38 38 38 38 39
24 24 24 24 25 24 24 24 24 23 23 22 22 21 21 20 20 21 21 22 22 22 22 22 23 23 24 24 24 24 25 25 25 25 26 26 27 27 27 28 28 28 28 29 29 29 29 29 30 30 31 31 32 33 33 34 34 35 35 36 36 36 37 37 37 37 37 37 37 37 37 37 37 37 37 37 37 37 38 39 39 39 39 40 40
26 25 25 24 24 24 24 24 23 23 23 23 22 22 22 22 22 22 22 22 22 23 23 24 24 25 25 25 25 25 25 26 26 26 27 27 28 28 29 29 29 30 30 30 30 31 31 31 32 32 32 33 34 34 34 35 35 35 36 36 36 37 37 37 38 38 38 38 38 38 38 38 38 38 38 38 38 39 40 40 40 41 41 41 41
27 26 25 24 24 24 24 24 24 25 25 24 24 24 24 24 24 24 24 24 24 24 24 25 26 27 27 28 28 27 27 27 28 28 28 29 29 30 30 31 31 31 32 32 32 32 33 33 33 34 34 35 35 36 36 37 37 37 37 37 37 37 38 38 38 38 39 39 39 39 39 40 40 40 40 40 40 40 41 41 41 41 41 42 42
26 25 24 24 24 24 24 24 25 26 26 25 26 26 26 26 25 25 25 26 26 26 26 26 27 27 28 29 29 30 30 30 31 31 31 31 32 32 32 33 33 33 33 33 33 33 34 34 34 35 35 35 36 37 37 38 38 39 39 39 39 39 39 39 39 39 40 40 40 41 41 41 41 42 42 42 42 42 42 42 42 42 42 42 42
28 27 27 26 26 25 24 24 25 25 26 26 27 27 27 26 25 25 26 27 27 28 28 28 28 29 29 30 31 31 32 32 33 33 33 34 34 35 35 35 35 35 34 34 34 34 35 35 35 36 36 36 37 37 38 38 38 38 38 38 38 39 39 39 39 40 40 40 41 41 41 42 42 42 42 42 42 43 43 43 43 43 43 43 43
31 31 30 30 29 27 26 26 25 26 26 27 27 27 27 26 26 26 27 27 28 28 29 29 29 29 30 31 32 33 34 34 34 34 35 36 37 37 37 36 36 35 35 35 35 35 35 35 36 36 37 37 38 38 38 38 38 38 38 38 38 38 39 39 39 39 39 40 40 40 41 41 41 41 41 41 41 41 41 42 42 42 42 42 42
31 31 31 31 30 30 29 28 28 28 28 28 28 28 27 26 26 26 27 27 27 27 28 28 28 28 28 29 31 32 33 34 34 35 37 38 38 36 35 34 33 33 33 33 34 34 34 35 36 37 37 38 38 38 38 38 38 37 37 37 37 38 38 38 39 39 39 40 40 40 41 41 41 41 41 41 41 41 41 41 41 41 41 41 41
30 30 30 31 31 31 30 30 30 29 29 28 28 28 27 27 27 27 28 27 27 27 28 29 29 28 27 28 30 31 33 34 36 37 37 36 34 32 31 31 31 32 32 33 33 33 34 34 35 35 36 36 37 37 37 37 37 37 37 37 37 37 38 38 39 39 40 40 41 41 42 42 42 42 42 42 42 42 42 42 42 41 41 41 41
28 28 29 29 29 29 29 28 28 28 27 26 25 26 26 27 29 29 29 28 28 28 29 29 30 30 31 32 32 33 34 35 35 35 34 33 32 31 30 30 31 32 32 32 32 32 33 33 33 34 34 34 34 35 35 36 36 36 36 36 36 37 37 38 38 39 40 40 41 41 41 41 42 42 42 42 42 41 41 41 41 41 40 40 40
28 29 29 29 29 29 29 28 28 28 27 26 26 26 27 28 29 29 28 28 28 28 28 27 28 31 33 35 34 34 34 34 33 33 32 32 31 30 29 30 30 31 32 32 33 33 33 33 33 32 32 32 32 33 34 35 35 35 36 36 36 37 37 38 38 38 39 39 40 40 40 40 41 41 41 41 40 40 40 39 39 39 39 39 38
29 29 29 30 30 30 30 30 30 30 30 30 29 29 29 30 30 30 30 31 32 31 30 29 28 29 31 32 31 30 31 31 32 33 33 32 31 30 30 31 31 32 32 32 33 33 33 33 32 32 32 32 33 34 35 35 36 36 36 36 37 37 37 37 38 38 38 38 38 38 38 38 38 39 39 39 39 39 38 38 38 38 38 38 37
29 29 30 30 30 30 31 31 31 31 31 32 32 31 31 31 31 31 32 32 31 30 31 31 31 31 31 31 31 30 30 31 32 32 32 32 31 32 33 33 33 33 33 32 32 32 32 32 32 32 32 33 34 35 35 35 35 35 36 36 36 36 36 36 36 36 36 36 36 36 36 36 36 36 36 36 36 36 36 36 36 36 36 36 36
Wind_Direction
205 204 203 205 205 203 203 203 206 209 209 208 205 204 205 205 208 212 214 217 219 219 222 224 224 223 223 224 225 226 227 227 227 227 225 226 225 225 228 229 230 233 237 240 240 240 238 238 241 243 246 251 256 262 266 268 268 268 269 273 277 281 284 288 292 292 293 296 299 301 304 308 310 311 313 314 317 322 323 322 322 319 313 310 312
207 207 205 206 206 205 205 204 206 209 211 209 207 207 208 207 211 215 215 216 219 221 221 223 225 225 223 224 225 225 226 227 229 230 230 231 230 230 232 234 236 238 240 243 245 246 244 243 243 244 246 250 255 260 265 267 268 269 272 275 279 283 284 285 287 285 284 289 295 299 303 306 307 307 309 312 315 319 320 317 315 311 306 305 308
208 209 208 207 206 206 207 206 206 209 210 211 211 210 211 211 215 218 217 217 219 222 223 223 225 225 224 225 227 226 227 227 228 229 229 232 232 232 234 238 240 241 241 242 244 245 246 247 248 248 247 248 251 255 259 264 267 267 268 269 272 276 279 280 280 281 281 284 289 294 298 301 303 302 303 306 310 317 320 316 311 307 304 304 307
211 212 211 210 208 208 208 208 208 209 210 212 214 213 213 214 216 217 217 219 219 222 224 224 225 224 223 225 227 227 228 228 228 227 228 231 232 232 234 237 240 241 240 240 242 243 245 247 248 247 247 247 249 253 257 260 262 263 263 265 266 268 271 275 279 284 288 289 293 297 300 304 304 300 299 302 310 321 325 320 313 310 307 305 304
213 215 215 215 214 213 213 212 211 210 210 211 214 215 215 215 215 215 217 219 219 221 224 227 227 226 224 225 225 226 227 227 227 227 228 230 231 232 233 235 237 237 237 238 239 241 243 245 247 248 249 251 253 256 258 260 263 266 267 267 267 269 272 276 281 287 292 297 301 304 306 309 308 301 300 305 314 323 325 319 314 312 307 302 303
216 215 218 220 220 220 220 219 217 214 212 212 212 215 216 216 216 216 218 220 221 222 226 229 231 230 228 227 226 225 225 226 226 226 228 229 231 232 233 234 235 236 238 239 240 242 243 244 246 247 249 252 255 260 264 269 273 276 275 272 270 270 273 278 283 288 294 301 308 311 311 312 308 303 306 311 314 315 313 309 306 307 307 303 303
217 216 218 220 222 225 224 224 222 219 216 214 214 215 215 216 218 219 220 222 224 225 227 230 232 232 231 230 230 229 228 228 228 228 230 231 232 233 233 235 237 239 240 241 242 244 246 247 248 248 250 252 256 263 269 275 279 280 280 278 275 275 276 281 287 292 295 300 307 310 312 311 307 305 307 309 311 310 307 303 299 300 302 299 296
218 217 219 219 221 224 225 225 224 221 219 217 217 217 217 218 219 222 223 223 225 229 230 231 232 232 232 232 233 234 233 232 233 234 235 235 236 237 238 238 240 241 243 244 245 247 248 251 254 255 256 258 260 264 269 273 276 277 278 278 278 279 280 285 291 292 292 296 301 303 305 307 305 305 306 306 307 306 304 303 301 300 300 299 296
218 218 220 220 219 220 223 225 223 221 221 220 220 220 220 220 222 224 227 226 227 230 232 234 234 235 235 234 235 237 238 236 236 237 239 240 241 242 242 243 242 242 244 246 248 250 250 253 256 260 263 263 264 267 271 275 279 281 280 278 278 279 279 283 289 290 289 293 296 297 300 304 303 303 304 302 302 301 297 297 298 300 303 303 300
220 220 221 221 219 219 221 223 222 221 220 220 222 223 223 224 225 226 229 229 229 231 233 234 235 236 238 239 239 240 240 239 239 239 241 243 244 245 245 246 246 246 247 249 251 252 252 253 256 259 262 264 266 269 273 276 280 282 281 278 278 279 280 283 287 288 287 289 291 293 297 301 302 301 300 299 298 297 295 294 295 297 301 301 299
223 222 223 223 222 220 221 223 224 223 222 222 223 225 226 227 228 229 231 233 234 235 235 237 237 237 239 241 243 242 241 242 243 244 245 245 245 246 247 249 249 249 251 252 253 253 253 254 256 257 259 262 263 264 265 268 271 273 274 274 275 277 278 281 283 284 284 286 288 291 294 297 298 297 297 296 295 295 294 295 296 298 300 300 299
223 221 222 224 223 221 220 222 225 226 226 227 226 227 228 229 231 233 234 236 238 239 240 241 242 242 242 243 244 244 244 245 247 249 250 249 249 249 250 251 251 251 252 253 253 252 253 254 255 256 259 261 263 263 263 264 266 267 268 269 270 273 274 276 278 280 282 285 288 291 293 295 296 296 295 294 293 293 293 295 297 300 303 304 303
222 218 218 222 223 223 221 220 223 226 227 228 230 230 231 233 234 236 237 239 242 243 243 244 245 246 246 246 247 247 248 248 248 250 251 251 252 253 254 254 253 252 253 253 253 252 252 254 255 257 259 261 262 264 265 265 265 266 267 267 269 271 274 276 278 280 282 285 287 289 291 293 295 296 295 295 294 294 294 294 296 300 303 305 306
225 219 214 214 215 219 224 225 224 226 228 230 233 235 236 237 238 240 241 241 242 244 245 246 247 248 249 249 249 248 248 248 247 247 248 250 253 255 256 256 255 253 253 252 252 253 253 255 256 258 260 261 261 261 262 264 265 267 269 270 271 273 274 276 278 280 282 284 285 287 289 292 295 296 296 297 297 297 296 295 296 298 300 302 302
228 228 225 223 217 215 220 227 230 231 232 234 236 238 241 242 242 242 243 243 243 243 243 244 246 247 248 249 249 247 246 246 246 246 247 249 253 254 254 253 253 253 252 251 251 252 253 254 256 258 260 261 261 262 262 264 266 268 270 272 273 274 274 275 277 279 281 283 284 286 288 290 293 295 297 297 297 297 297 297 297 298 299 300 299
228 236 242 245 239 228 223 225 230 234 237 238 240 241 242 243 245 246 247 247 246 244 242 243 244 245 244 243 244 245 246 246 247 247 248 249 251 251 251 251 252 252 253 253 253 254 255 256 258 260 261 262 263 264 264 265 267 268 270 272 273 274 274 274 275 277 279 281 283 285 288 290 292 295 296 295 295 296 297 299 301 302 302 301 300
232 244 251 252 249 242 236 230 227 229 234 238 242 244 244 245 247 250 251 251 250 249 246 244 243 244 244 243 242 243 244 245 247 248 249 250 251 251 251 251 251 252 253 254 255 256 257 258 259 260 261 262 263 265 266 267 268 268 269 271 273 275 276 276 277 278 279 282 284 287 288 290 291 294 295 295 296 297 298 300 303 306 307 306 303
244 251 254 251 245 239 237 235 231 227 228 235 242 244 244 244 246 252 256 255 255 254 252 248 245 245 245 245 245 244 243 244 246 248 250 252 252 253 253 252 252 252 252 252 252 253 254 255 256 258 260 261 263 265 266 266 267 267 267 269 272 274 276 278 278 279 281 283 285 287 288 289 290 293 295 296 297 298 300 301 303 305 308 310 308
245 240 240 243 243 240 241 245 245 238 232 236 242 244 245 246 247 253 259 260 258 256 256 255 253 250 248 247 248 248 246 246 247 249 251 253 254 255 255 255 255 254 254 253 253 252 252 253 254 255 257 260 262 264 266 266 266 265 266 268 270 272 274 277 278 279 281 283 286 287 288 289 291 292 294 296 298 299 299 300 301 302 305 306 307
245 245 245 243 242 243 246 250 254 253 247 244 244 247 251 253 252 255 261 264 262 258 255 255 257 256 254 252 252 251 250 249 249 251 253 255 257 258 257 257 257 257 256 255 254 254 254 255 257 259 261 263 264 264 264 264 264 264 264 266 268 271 274 276 278 280 282 284 287 289 290 291 293 295 297 298 299 299 298 298 299 299 300 300 300
257 261 260 254 249 249 250 251 254 258 259 256 252 251 254 256 258 259 261 263 264 261 258 257 257 257 256 256 255 255 254 253 254 256 258 259 260 260 259 258 259 259 259 258 257 258 259 260 262 265 268 268 268 267 265 263 263 262 262 263 266 270 274 276 278 281 282 284 286 289 292 294 295 296 297 297 298 298 297 297 297 297 296 295 295
258 262 264 263 261 260 257 254 252 252 254 256 253 251 252 255 257 258 258 261 263 262 260 259 257 255 254 255 257 258 259 260 260 261 261 261 261 261 261 260 261 262 262 263 263 262 263 264 266 268 269 269 268 266 263 263 263 262 260 261 264 269 273 276 277 279 281 283 287 290 292 294 294 294 294 295 295 296 296 297 298 298 296 294 293
250 253 257 260 261 259 255 251 247 245 248 251 251 251 253 256 257 256 255 259 263 260 257 258 257 255 254 255 258 261 263 264 264 264 264 262 260 260 261 261 262 263 265 265 264 261 261 263 263 263 265 264 261 259 257 258 261 261 259 261 265 269 271 272 272 275 279 283 287 290 292 293 293 292 292 292 292 294 295 297 298 298 298 297 296
244 245 246 245 244 244 242 242 241 241 245 250 253 253 252 254 258 260 256 253 255 255 253 255 256 256 257 257 258 260 260 261 261 260 260 259 259 260 260 258 258 260 263 262 259 257 257 257 255 257 263 265 257 249 248 253 256 258 260 263 266 268 267 268 271 276 282 286 289 292 293 293 293 292 292 292 292 293 294 295 296 296 296 296 296
239 242 245 244 242 238 237 240 241 242 245 248 248 247 247 250 254 256 254 251 253 254 253 252 252 253 255 256 256 255 256 259 260 257 253 255 256 254 251 249 248 253 257 258 255 254 256 260 261 264 273 278 263 244 245 251 254 258 261 263 265 266 268 272 277 282 287 291 293 294 295 294 294 294 294 294 293 293 294 294 295 295 294 294 293
227 232 238 241 240 237 236 237 236 235 238 242 240 237 239 243 245 245 247 251 253 254 256 256 252 250 252 256 258 258 258 261 262 258 255 259 260 253 246 243 244 250 256 260 261 262 264 267 269 268 272 275 268 254 251 252 255 258 261 263 267 271 275 279 283 287 290 293 294 294 294 294 294 294 294 293 293 294 295 295 295 295 294 294 293
211 215 224 231 232 232 234 236 235 231 232 240 240 235 234 236 234 231 237 244 246 248 255 258 255 250 250 254 258 262 263 263 264 266 265 266 267 266 262 257 253 253 257 261 264 265 264 264 265 264 264 266 264 259 257 257 258 261 264 268 273 276 280 284 287 290 291 292 293 293 292 292 291 291 291 292 294 296 297 296 295 293 292 291 290
231 223 232 246 253 251 247 248 249 246 240 242 248 242 237 236 234 228 230 236 243 247 251 255 255 253 253 254 255 260 265 267 272 276 274 269 265 264 264 262 259 258 258 259 260 260 260 261 262 262 262 262 263 263 263 264 265 267 270 274 278 281 284 287 289 290 291 292 292 292 291 290 290 290 291 292 293 294 295 293 292 290 289 287 285
321 313 302 292 283 282 281 272 266 262 251 241 239 237 234 237 240 239 238 243 248 251 254 256 257 256 255 255 255 257 261 264 266 268 270 271 270 267 267 267 266 263 261 259 259 259 259 260 261 260 260 260 262 265 268 270 272 274 277 280 283 285 287 288 289 290 291 291 292 291 291 291 291 291 292 292 292 292 291 290 289 287 286 284 283
321 321 323 317 271 265 277 282 272 260 247 236 232 229 228 231 234 237 240 245 247 250 252 255 256 257 256 256 257 257 259 260 261 259 258 261 264 266 267 266 266 267 269 269 268 268 268 268 268 267 268 268 269 271 273 276 278 280 282 284 286 287 288 289 289 290 290 290 291 291 291 292 292 292 291 291 291 290 289 287 286 284 283 281 279
287 288 287 247 151 156 174 203 245 259 238 235 233 232 233 234 235 235 237 240 243 247 252 255 256 258 259 260 261 262 261 260 259 256 253 254 258 261 263 265 268 271 274 276 277 277 278 277 276 276 276 277 277 278 279 281 282 283 284 285 286 286 287 287 288 288 289 289 290 290 291 291 291 291 290 289 289 288 287 286 284 283 282 280 278
234 223 211 196 174 155 141 132 126 117 135 246 252 256 257 257 253 249 248 248 250 254 258 261 263 263 262 263 263 262 261 259 257 254 251 249 251 254 258 264 269 270 271 272 273 274 275 276 276 277 277 277 278 278 279 280 281 282 283 283 284 285 285 286 286 287 288 289 290 290 291 291 291 291 290 289 288 287 286 285 285 284 283 282 280
233 222 210 202 192 184 178 171 163 161 171 189 220 251 263 267 266 263 260 258 259 261 262 265 268 269 269 269 268 267 266 264 263 261 258 255 253 253 254 259 265 268 270 270 269 269 269 270 271 272 273 273 274 274 275 277 278 279 280 281 282 282 283 284 285 286 287 288 288 289 289 290 290 290 289 288 287 286 285 284 284 284 283 282 281
240 233 228 223 216 211 208 204 199 196 197 203 218 236 250 260 265 267 268 266 265 266 266 267 270 271 272 274 274 274 274 273 271 270 268 265 262 260 259 261 263 266 269 272 272 270 269 268 268 269 269 270 271 272 273 274 275 275 276 277 277 279 280 281 282 283 284 285 286 287 287 288 289 289 289 288 287 287 286 284 283 283 282 281 280
245 242 241 240 240 241 241 238 236 233 230 232 240 247 255 260 262 264 267 269 270 272 272 271 273 274 276 277 278 277 277 277 276 275 274 273 271 269 267 267 265 265 267 269 271 272 272 271 272 272 272 273 273 274 275 275 275 276 276 276 277 277 278 279 279 280 281 282 283 284 284 285 286 287 288 289 289 289 288 287 286 285 283 282 281
250 250 251 252 252 253 256 257 259 260 259 257 257 258 260 264 267 269 270 271 273 276 277 277 279 279 280 282 283 284 283 282 281 280 279 279 278 276 275 274 272 271 271 272 273 275 276 276 277 277 277 277 277 277 277 278 278 279 279 279 279 279 279 279 279 280 281 282 283 284 284 285 286 287 287 288 289 289 289 289 288 287 287 286 285
254 255 257 259 261 262 263 264 266 267 268 268 269 268 268 268 269 271 272 272 274 275 276 278 279 279 279 280 282 284 286 286 286 286 285 285 284 283 282 281 280 279 279 279 280 280 281 281 281 281 280 280 280 280 280 279 279 280 280 280 280 280 280 281 281 282 283 284 284 285 286 286 287 287 288 288 289 289 289 289 289 289 289 289 288
258 260 262 264 266 268 270 272 273 273 273 273 273 272 271 270 269 268 267 268 269 272 274 276 276 277 277 278 278 279 281 282 284 286 286 286 286 285 285 285 284 284 284 284 283 283 283 283 283 282 282 282 282 282 281 281 281 281 281 281 282 282 283 283 283 284 284 285 285 286 286 287 287 288 288 289 290 290 290 290 290 290 290 290 289
257 259 262 265 267 270 272 274 275 276 277 277 277 276 274 272 269 266 263 262 262 264 266 268 270 271 272 273 275 276 277 278 279 280 281 281 282 282 283 284 284 285 286 286 285 285 284 284 284 283 283 283 282 282 283 282 282 283 283 283 284 284 285 285 286 286 286 286 286 286 286 286 287 287 288 289 289 289 289 289 289 289 289 289 289
261 261 262 264 267 269 271 272 273 274 275 276 277 278 278 275 272 268 265 262 261 262 263 264 265 266 267 268 269 271 272 273 274 275 276 277 279 280 281 282 283 284 284 285 285 285 284 284 284 284 284 283 283 283 282 282 282 283 283 284 284 285 285 286 286 286 286 287 287 287 287 287 287 288 288 289 289 288 288 288 288 288 288 288 288
267 267 267 267 268 269 269 270 270 270 270 271 272 274 276 276 274 272 270 267 266 265 266 266 266 266 267 267 268 269 270 271 272 272 273 275 276 277 278 279 280 281 281 282 282 283 283 283 284 284 284 284 283 283 282 282 282 282 281 281 282 282 283 283 284 285 286 286 286 286 287 287 287 287 288 288 287 287 287 288 288 288 287 287 287
274 273 272 271 270 269 268 269 269 269 269 269 269 269 270 271 271 272 271 270 269 269 269 269 269 269 269 270 270 271 272 273 273 273 274 274 275 277 278 278 279 279 280 280 281 281 281 281 281 280 280 280 280 280 281 281 280 281 281 281 281 282 283 283 284 285 286 287 287 288 288 288 288 289 288 288 288 288 288 288 288 288 287 287 287
275 276 275 274 272 270 269 269 269 270 269 268 268 268 269 270 270 270 269 268 267 267 268 268 268 269 270 271 272 272 273 273 273 274 275 276 277 278 279 280 280 280 280 281 281 280 280 280 280 280 279 279 279 279 279 279 280 280 281 281 282 283 284 285 285 286 287 288 288 289 289 289 290 290 290 290 290 290 290 290 290 290 290 290 290
270 271 272 273 273 273 273 273 272 272 272 271 271 270 271 271 271 270 269 268 268 267 267 268 268 269 270 271 273 273 274 274 274 275 276 277 278 278 279 280 281 281 281 281 280 280 280 280 280 280 280 280 279 279 279 279 279 279 280 281 282 283 284 285 285 286 286 287 287 287 288 288 288 289 289 290 290 290 291 291 291 291 291 291 291
270 270 271 272 273 274 276 276 275 276 277 278 278 277 275 275 274 272 270 270 270 270 271 271 271 270 270 270 271 271 272 273 274 275 275 276 276 278 279 280 281 281 281 281 280 280 279 278 278 277 277 277 278 278 278 279 280 281 282 283 283 284 285 285 285 286 286 286 286 287 287 288 288 289 289 290 290 290 290 290 290 289 289 289 289
271 271 272 272 273 273 273 273 273 274 275 276 278 279 279 279 278 276 274 273 273 273 274 274 272 270 268 267 267 267 269 270 271 272 274 276 278 280 282 281 281 280 280 280 280 279 278 277 276 275 275 275 276 277 278 279 280 281 282 283 284 284 285 286 287 287 288 288 289 289 290 290 290 291 291 291 291 291 290 290 290 289 289 289 289
272 272 272 272 272 272 271 270 270 271 272 273 274 276 277 278 278 277 277 278 278 278 278 276 273 270 268 266 266 266 266 267 270 272 275 278 281 283 283 282 281 281 280 280 279 278 278 277 277 276 276 276 277 277 278 278 279 280 281 283 284 285 286 287 287 288 288 289 289 290 290 291 291 291 291 291 291 291 290 290 289 289 289 289 289
270 271 271 271 271 271 271 270 269 270 270 270 270 271 272 272 273 275 277 280 282 282 281 280 278 275 271 267 265 265 265 267 269 272 276 280 282 283 282 281 281 280 280 279 279 280 281 281 280 279 279 279 280 280 281 282 283 284 285 286 287 287 287 288 288 288 288 289 289 289 290 290 290 289 289 289 289 289 289 289 289 288 288 288 288
269 268 268 269 269 270 270 270 269 269 269 268 267 266 266 267 269 272 275 277 277 276 276 279 281 279 273 267 263 263 265 268 271 274 278 280 281 280 280 281 281 281 281 280 280 280 281 282 282 283 283 284 285 286 286 287 288 289 289 289 288 288 287 287 287 287 287 287 288 288 288 288 288 288 288 288 288 288 289 289 289 288 288 288 288
268 269 269 270 270 271 271 271 270 270 269 268 267 266 265 265 267 268 269 270 271 271 272 274 277 277 274 272 272 273 274 275 277 279 281 282 282 282 282 282 282 281 280 278 278 279 280 282 284 285 286 287 287 287 288 289 289 289 289 289 288 288 288 288 288 288 288 288 288 288 288 288 288 288 288 288 288 288 288 288 288 288 288 288 288
268 269 270 271 272 272 272 272 272 271 270 268 267 266 266 266 266 267 268 270 271 273 274 276 278 279 279 279 280 280 279 279 280 280 280 281 282 283 282 282 281 280 279 279 280 280 282 283 284 285 286 287 287 288 288 289 289 290 290 290 290 290 291 290 290 290 290 290 290 290 290 290 289 289 289 289 289 289 288 288 288 288 288 287 287
Height
3219 3220 3222 3223 3224 3225 3226 3227 3228 3229 3230 3231 3232 3233 3234 3235 3236 3237 3238 3239 3240 3241 3242 3243 3243 3244 3245 3245 3246 3246 3247 3247 3248 3248 3248 3248 3249 3249 3249 3249 3249 3249 3249 3249 3249 3249 3249 3249 3249 3249 3249 3249 3249 3249 3249 3249 3249 3249 3248 3248 3247 3247 3246 3246 3246 3245 3244 3243 3242 3242 3241 3240 3239 3237 3236 3235 3234 3234 3233 3231 3230 3229 3228 3226 3225
3218 3220 3221 3222 3223 3224 3225 3226 3227 3228 3229 3230 3231 3232 3233 3234 3235 3236 3237 3238 3239 3239 3240 3241 3242 3243 3243 3244 3245 3245 3246 3246 3247 3247 3247 3248 3248 3248 3248 3248 3248 3248 3248 3248 3248 3249 3249 3248 3248 3248 3248 3248 3248 3248 3247 3247 3247 3247 3247 3246 3246 3245 3245 3245 3244 3244 3243 3242 3241 3241 3240 3239 3238 3236 3235 3234 3233 3233 3232 3230 3229 3228 3226 3225 3224
3217 3219 3220 3221 3222 3223 3224 3225 3226 3227 3228 3229 3230 3231 3232 3233 3234 3235 3236 3237 3237 3238 3239 3240 3241 3241 3242 3243 3243 3244 3245 3245 3246 3246 3246 3247 3247 3247 3247 3247 3248 3248 3247 3247 3248 3248 3248 3248 3248 3247 3247 3247 3247 3246 3246 3246 3246 3245 3245 3245 3244 3244 3244 3243 3243 3243 3242 3241 3241 3240 3239 3238 3237 3235 3234 3233 3232 3231 3231 3229 3228 3226 3225 3224 3223
3216 3217 3218 3220 3221 3222 3223 3224 3225 3226 3227 3228 3229 3230 3231 3232 3233 3234 3235 3236 3236 3237 3238 3239 3239 3240 3241 3241 3242 3243 3244 3244 3245 3245 3245 3246 3246 3246 3246 3247 3247 3247 3247 3247 3247 3247 3247 3247 3246 3246 3246 3246 3246 3245 3245 3244 3244 3244 3244 3243 3243 3243 3242 3242 3242 3241 3241 3241 3240 3239 3238 3237 3236 3235 3233 3232 3232 3230 3229 3228 3227 3226 3224 3224 3223
3215 3216 3217 3218 3219 3220 3221 3222 3223 3224 3225 3227 3228 3229 3230 3231 3232 3233 3234 3234 3235 3236 3237 3237 3238 3239 3239 3240 3241 3242 3242 3243 3243 3244 3244 3245 3245 3245 3246 3246 3246 3246 3246 3246 3246 3246 3246 3245 3245 3245 3245 3245 3244 3244 3243 3243 3243 3243 3243 3242 3242 3242 3241 3241 3240 3240 3239 3239 3239 3238 3237 3236 3235 3234 3232 3231 3231 3230 3229 3227 3226 3225 3224 3223 3222
3213 3214 3215 3216 3217 3218 3219 3220 3222 3223 3224 3225 3226 3227 3228 3229 3230 3231 3232 3233 3234 3235 3235 3236 3237 3238 3238 3239 3240 3240 3240 3241 3242 3242 3243 3243 3244 3244 3245 3245 3245 3245 3245 3245 3245 3245 3245 3244 3244 3244 3244 3244 3243 3243 3242 3242 3242 3242 3242 3241 3241 3240 3240 3239 3239 3238 3238 3238 3237 3237 3236 3235 3234 3232 3231 3230 3229 3229 3228 3227 3226 3224 3224 3223 3222
3211 3212 3213 3214 3215 3216 3218 3219 3220 3221 3222 3223 3224 3225 3226 3228 3229 3230 3230 3231 3232 3233 3234 3235 3236 3236 3237 3238 3238 3239 3239 3240 3240 3241 3242 3242 3243 3243 3243 3244 3244 3244 3244 3244 3244 3244 3243 3243 3243 3243 3242 3242 3242 3242 3242 3241 3241 3241 3241 3240 3240 3239 3239 3239 3238 3237 3237 3236 3235 3235 3234 3233 3232 3231 3230 3229 3228 3227 3227 3226 3225 3224 3223 3222 3221
3210 3211 3212 3212 3214 3215 3216 3217 3218 3220 3221 3222 3222 3224 3225 3226 3227 3228 3229 3230 3231 3232 3233 3233 3234 3235 3235 3236 3237 3237 3238 3239 3239 3240 3240 3241 3241 3242 3242 3242 3242 3242 3243 3242 3242 3242 3242 3242 3242 3242 3241 3241 3241 3241 3241 3240 3240 3240 3240 3239 3239 3238 3238 3238 3237 3236 3235 3235 3234 3234 3233 3232 3231 3230 3229 3228 3227 3226 3225 3224 3224 3223 3222 3221 3220
3208 3209 3210 3211 3212 3213 3214 3215 3216 3217 3218 3220 3221 3222 3223 3224 3225 3226 3227 3228 3229 3230 3231 3232 3232 3233 3234 3234 3235 3236 3236 3237 3238 3239 3239 3239 3240 3240 3240 3240 3241 3241 3241 3241 3241 3241 3241 3241 3241 3241 3240 3240 3240 3240 3239 3239 3238 3238 3238 3237 3237 3237 3237 3236 3235 3235 3234 3234 3233 3232 3231 3230 3229 3228 3228 3227 3226 3225 3224 3223 3222 3221 3221 3220 3219
3206 3207 3208 3209 3211 3212 3213 3213 3214 3215 3216 3217 3219 3220 3221 3222 3223 3224 3225 3226 3227 3228 3229 3230 3230 3231 3232 3233 3233 3234 3235 3235 3236 3236 3237 3237 3238 3238 3238 3238 3239 3239 3239 3239 3239 3239 3239 3239 3239 3239 3239 3238 3238 3238 3238 3237 3237 3237 3236 3236 3235 3235 3235 3234 3234 3233 3232 3232 3232 3231 3230 3229 3228 3227 3226 3225 3224 3223 3222 3221 3220 3220 3219 3218 3217
3203 3205 3206 3208 3209 3210 3211 3212 3213 3214 3215 3216 3217 3218 3219 3220 3221 3222 3223 3224 3225 3226 3227 3228 3229 3229 3230 3231 3231 3232 3233 3233 3234 3235 3235 3235 3236 3236 3236 3236 3237 3237 3237 3237 3237 3237 3237 3237 3237 3237 3237 3236 3236 3236 3236 3236 3235 3235 3234 3234 3234 3233 3233 3232 3231 3231 3230 3230 3229 3228 3228 3227 3226 3225 3224 3223 3222 3221 3221 3219 3218 3217 3216 3215 3215
3200 3202 3204 3206 3207 3208 3209 3210 3211 3212 3213 3214 3215 3216 3217 3218 3219 3220 3221 3222 3223 3224 3225 3226 3227 3228 3228 3229 3229 3230 3231 3231 3232 3232 3233 3233 3233 3234 3234 3234 3234 3235 3235 3235 3235 3235 3235 3235 3235 3235 3235 3235 3234 3234 3234 3234 3233 3233 3232 3232 3231 3231 3231 3230 3229 3229 3228 3228 3227 3226 3225 3225 3224 3223 3222 3221 3220 3219 3219 3217 3216 3215 3214 3213 3212
3199 3200 3201 3203 3204 3206 3207 3208 3209 3210 3211 3212 3213 3214 3214 3215 3217 3218 3219 3220 3221 3221 3222 3224 3224 3225 3226 3227 3227 3228 3229 3229 3230 3230 3231 3231 3231 3231 3232 3232 3232 3232 3232 3233 3233 3233 3233 3232 3232 3232 3232 3232 3232 3232 3232 3231 3231 3230 3230 3229 3229 3229 3228 3228 3227 3226 3226 3225 3224 3223 3222 3222 3221 3221 3220 3219 3218 3217 3216 3215 3214 3213 3211 3210 3209
3196 3196 3195 3197 3200 3202 3204 3206 3207 3207 3208 3209 3210 3212 3212 3213 3214 3216 3217 3217 3218 3219 3220 3221 3222 3223 3223 3224 3225 3226 3226 3227 3227 3228 3228 3228 3228 3229 3229 3229 3229 3229 3230 3230 3230 3230 3230 3230 3230 3230 3230 3230 3229 3229 3229 3229 3228 3228 3227 3227 3226 3226 3226 3225 3224 3224 3223 3223 3222 3221 3220 3219 3219 3218 3217 3216 3215 3215 3214 3213 3211 3210 3209 3208 3206
3193 3194 3195 3196 3198 3199 3201 3204 3205 3205 3206 3207 3209 3210 3210 3211 3213 3213 3214 3215 3216 3217 3217 3218 3219 3220 3220 3221 3222 3223 3223 3224 3224 3225 3225 3225 3225 3226 3226 3226 3226 3226 3227 3227 3227 3227 3227 3227 3227 3227 3227 3227 3227 3227 3227 3226 3226 3225 3225 3224 3224 3223 3223 3222 3222 3221 3221 3220 3219 3218 3217 3216 3216 3215 3214 3213 3212 3211 3210 3209 3209 3208 3206 3205 3203
3190 3193 3196 3198 3200 3200 3201 3202 3202 3203 3204 3205 3206 3207 3208 3209 3210 3211 3212 3213 3214 3214 3215 3215 3216 3217 3218 3218 3219 3220 3220 3221 3221 3222 3222 3222 3222 3222 3222 3223 3223 3223 3223 3224 3224 3224 3224 3225 3225 3225 3224 3224 3224 3224 3224 3224 3223 3223 3222 3222 3221 3220 3220 3220 3219 3218 3218 3217 3216 3216 3215 3214 3213 3212 3211 3210 3209 3208 3207 3206 3205 3204 3203 3202 3200
3187 3190 3193 3195 3197 3198 3199 3199 3199 3200 3201 3202 3203 3204 3205 3206 3207 3208 3209 3210 3211 3212 3212 3213 3214 3214 3215 3216 3216 3217 3217 3217 3218 3218 3218 3219 3219 3219 3219 3219 3219 3219 3220 3220 3220 3221 3221 3221 3221 3221 3221 3221 3221 3221 3221 3221 3220 3220 3220 3219 3218 3218 3217 3217 3216 3215 3215 3214 3213 3213 3212 3211 3210 3209 3208 3207 3206 3205 3204 3203 3202 3201 3200 3199 3198
3184 3187 3190 3192 3193 3194 3195 3196 3194 3193 3195 3198 3199 3200 3201 3202 3203 3204 3205 3206 3208 3208 3209 3210 3211 3212 3212 3212 3213 3213 3214 3214 3215 3215 3215 3216 3216 3216 3216 3216 3216 3216 3216 3216 3217 3217 3217 3217 3218 3218 3218 3218 3218 3218 3218 3218 3217 3217 3217 3216 3215 3215 3214 3213 3213 3212 3211 3211 3210 3209 3208 3208 3207 3206 3205 3203 3203 3202 3201 3200 3200 3198 3197 3196 3195
3182 3184 3188 3190 3191 3191 3193 3193 3192 3189 3189 3191 3193 3195 3197 3199 3200 3200 3201 3203 3204 3205 3206 3208 3209 3209 3209 3209 3210 3210 3211 3211 3211 3211 3212 3212 3212 3212 3212 3212 3212 3212 3212 3212 3212 3213 3213 3213 3213 3213 3213 3213 3214 3214 3214 3214 3213 3213 3213 3213 3212 3212 3211 3210 3210 3209 3208 3208 3207 3207 3206 3205 3204 3203 3202 3200 3200 3199 3198 3197 3197 3196 3195 3193 3192
3180 3183 3186 3188 3189 3189 3189 3190 3190 3187 3184 3185 3188 3191 3194 3196 3197 3197 3197 3199 3200 3200 3200 3203 3205 3206 3207 3207 3206 3206 3207 3207 3207 3208 3208 3208 3209 3208 3207 3207 3207 3206 3206 3208 3208 3208 3208 3208 3209 3209 3209 3209 3209 3209 3209 3209 3209 3209 3209 3209 3209 3208 3208 3207 3207 3206 3206 3205 3205 3204 3203 3202 3202 3201 3199 3198 3197 3196 3195 3194 3193 3192 3192 3190 3189
3178 3179 3181 3183 3185 3185 3184 3184 3184 3183 3182 3182 3185 3189 3190 3191 3193 3194 3194 3195 3195 3194 3195 3197 3200 3202 3203 3203 3203 3202 3203 3203 3204 3204 3204 3204 3204 3202 3201 3202 3201 3200 3201 3203 3204 3203 3204 3204 3204 3204 3204 3204 3204 3204 3204 3204 3204 3204 3204 3205 3205 3205 3205 3204 3204 3203 3203 3202 3202 3201 3201 3200 3199 3198 3197 3196 3195 3194 3192 3191 3190 3189 3188 3187 3186
3177 3176 3176 3177 3179 3179 3179 3179 3178 3178 3179 3180 3182 3185 3187 3189 3189 3190 3190 3190 3189 3189 3191 3192 3194 3196 3197 3198 3199 3199 3199 3199 3199 3199 3199 3199 3199 3196 3196 3197 3196 3195 3197 3199 3198 3199 3199 3200 3199 3199 3199 3199 3198 3198 3199 3200 3201 3201 3201 3201 3202 3202 3202 3201 3201 3200 3200 3200 3199 3199 3198 3197 3196 3195 3194 3193 3192 3191 3190 3188 3187 3186 3185 3184 3183
3175 3174 3174 3174 3175 3176 3177 3177 3176 3176 3176 3176 3178 3181 3184 3186 3185 3185 3186 3185 3184 3185 3186 3187 3189 3191 3192 3193 3194 3195 3195 3194 3194 3193 3193 3193 3193 3191 3192 3193 3192 3191 3193 3194 3193 3193 3194 3194 3194 3194 3193 3192 3191 3191 3194 3197 3197 3198 3198 3198 3199 3199 3198 3198 3198 3198 3198 3197 3197 3196 3195 3194 3193 3192 3191 3190 3189 3187 3186 3185 3185 3183 3182 3180 3179
3171 3172 3172 3172 3173 3174 3175 3175 3175 3175 3175 3175 3176 3178 3180 3181 3181 3181 3182 3181 3180 3181 3182 3183 3184 3186 3187 3189 3190 3190 3190 3189 3188 3187 3186 3187 3187 3187 3188 3188 3187 3188 3190 3190 3188 3188 3189 3189 3189 3188 3188 3188 3187 3188 3191 3193 3194 3195 3195 3196 3196 3196 3195 3195 3195 3195 3195 3195 3194 3193 3192 3191 3189 3188 3187 3186 3185 3184 3183 3182 3181 3180 3179 3177 3176
3168 3169 3170 3170 3171 3171 3172 3173 3173 3174 3174 3174 3175 3176 3177 3177 3177 3177 3178 3177 3177 3178 3178 3179 3180 3181 3182 3184 3184 3183 3183 3183 3182 3180 3180 3181 3182 3181 3181 3182 3182 3184 3185 3185 3184 3184 3185 3186 3186 3186 3186 3186 3187 3188 3189 3190 3191 3192 3192 3193 3193 3193 3193 3193 3193 3193 3192 3191 3191 3189 3188 3187 3186 3184 3183 3182 3181 3180 3180 3179 3178 3177 3176 3174 3173
3166 3167 3168 3168 3168 3169 3169 3170 3171 3172 3172 3172 3173 3174 3174 3174 3174 3174 3175 3174 3174 3175 3175 3176 3177 3178 3178 3178 3178 3177 3178 3179 3178 3176 3176 3178 3179 3178 3178 3178 3179 3180 3181 3181 3181 3181 3182 3183 3184 3185 3185 3185 3186 3186 3187 3187 3188 3189 3190 3190 3190 3190 3190 3190 3190 3189 3188 3188 3187 3186 3184 3183 3182 3181 3179 3178 3177 3177 3176 3175 3174 3173 3172 3171 3170
3165 3165 3165 3166 3166 3166 3167 3167 3168 3169 3169 3170 3170 3171 3172 3171 3171 3171 3172 3172 3172 3173 3174 3174 3175 3175 3175 3175 3175 3174 3175 3175 3175 3174 3174 3176 3176 3177 3177 3177 3178 3178 3178 3178 3178 3179 3180 3181 3182 3183 3184 3184 3184 3184 3185 3185 3186 3187 3187 3187 3187 3187 3187 3186 3186 3185 3185 3184 3183 3182 3180 3179 3178 3177 3176 3174 3174 3173 3173 3172 3171 3170 3169 3168 3167
3163 3163 3164 3164 3164 3164 3164 3164 3165 3165 3166 3167 3168 3168 3169 3169 3169 3169 3170 3169 3170 3171 3172 3172 3172 3173 3173 3173 3173 3173 3173 3173 3173 3173 3173 3173 3174 3174 3175 3175 3175 3176 3176 3176 3176 3177 3178 3179 3180 3181 3182 3182 3182 3183 3183 3184 3184 3184 3184 3184 3184 3183 3183 3182 3182 3181 3180 3179 3178 3177 3176 3175 3174 3173 3172 3171 3170 3169 3169 3168 3167 3166 3166 3165 3164
3161 3161 3162 3162 3162 3162 3163 3163 3163 3163 3164 3165 3166 3166 3166 3167 3167 3167 3167 3167 3168 3168 3169 3170 3170 3170 3170 3171 3171 3171 3171 3171 3171 3171 3171 3171 3172 3172 3172 3173 3173 3173 3174 3174 3174 3175 3176 3177 3178 3178 3179 3180 3180 3181 3181 3181 3181 3181 3181 3180 3180 3179 3179 3178 3177 3176 3175 3175 3174 3173 3172 3171 3170 3169 3168 3167 3167 3166 3165 3164 3163 3163 3162 3161 3161
3160 3160 3161 3161 3161 3161 3162 3162 3162 3163 3163 3164 3164 3164 3164 3164 3164 3164 3165 3165 3166 3166 3166 3167 3168 3168 3168 3169 3169 3169 3169 3170 3170 3170 3170 3170 3170 3170 3170 3171 3171 3172 3173 3173 3173 3173 3174 3174 3175 3175 3176 3177 3177 3177 3177 3177 3177 3177 3177 3176 3175 3175 3174 3173 3173 3171 3170 3170 3169 3168 3167 3166 3166 3165 3164 3163 3163 3162 3161 3161 3160 3159 3158 3158 3157
3160 3160 3160 3160 3161 3161 3161 3161 3162 3162 3163 3163 3163 3163 3163 3163 3163 3163 3163 3163 3164 3164 3165 3165 3166 3166 3167 3167 3167 3167 3167 3167 3168 3168 3168 3168 3168 3169 3169 3170 3170 3171 3171 3171 3171 3171 3172 3172 3172 3172 3173 3173 3173 3173 3173 3173 3173 3173 3172 3171 3171 3170 3170 3169 3168 3167 3166 3165 3164 3163 3163 3162 3161 3161 3160 3159 3159 3158 3157 3156 3156 3155 3154 3154 3153
3159 3159 3159 3160 3160 3160 3160 3161 3161 3162 3162 3162 3162 3162 3162 3162 3162 3162 3162 3162 3163 3163 3163 3164 3164 3165 3165 3166 3166 3166 3166 3166 3166 3166 3166 3166 3167 3167 3168 3168 3169 3169 3169 3168 3168 3169 3169 3169 3169 3169 3169 3170 3170 3170 3169 3169 3169 3168 3168 3167 3167 3166 3165 3164 3163 3162 3161 3161 3160 3159 3158 3158 3157 3156 3156 3155 3154 3154 3153 3152 3152 3151 3151 3150 3150
3159 3159 3159 3159 3159 3160 3160 3160 3160 3161 3161 3161 3161 3162 3162 3162 3162 3161 3162 3162 3162 3162 3162 3163 3163 3163 3164 3164 3164 3164 3164 3164 3164 3164 3164 3165 3165 3165 3166 3166 3166 3166 3166 3166 3166 3166 3166 3167 3167 3166 3166 3166 3166 3166 3166 3165 3165 3164 3164 3163 3162 3162 3161 3160 3159 3158 3157 3157 3156 3155 3154 3154 3153 3152 3152 3151 3151 3150 3149 3149 3148 3148 3147 3146 3146
3158 3158 3158 3159 3159 3159 3159 3159 3159 3159 3160 3160 3160 3160 3160 3160 3161 3161 3161 3161 3161 3161 3161 3162 3162 3162 3162 3162 3162 3162 3162 3162 3162 3162 3162 3162 3162 3163 3163 3163 3163 3163 3163 3163 3163 3163 3163 3163 3163 3163 3163 3162 3162 3162 3161 3161 3161 3160 3160 3159 3158 3158 3157 3156 3155 3154 3154 3153 3152 3151 3150 3150 3149 3148 3148 3147 3147 3146 3145 3145 3144 3144 3143 3143 3142
3157 3157 3157 3158 3158 3158 3158 3158 3159 3159 3159 3159 3159 3159 3159 3159 3159 3159 3159 3159 3160 3160 3160 3160 3160 3160 3160 3160 3160 3160 3160 3160 3160 3160 3159 3159 3160 3160 3160 3160 3160 3160 3160 3160 3160 3160 3160 3159 3159 3159 3159 3159 3158 3158 3157 3157 3156 3156 3155 3155 3154 3154 3153 3152 3151 3150 3150 3149 3148 3147 3147 3146 3145 3144 3143 3143 3142 3142 3141 3140 3140 3139 3138 3138 3137
3155 3155 3156 3156 3156 3157 3157 3157 3157 3157 3158 3158 3158 3158 3158 3158 3158 3158 3158 3158 3158 3158 3158 3159 3159 3159 3159 3158 3158 3158 3158 3158 3157 3157 3157 3157 3157 3157 3157 3157 3157 3157 3157 3157 3156 3156 3156 3155 3155 3155 3155 3155 3154 3154 3153 3152 3152 3151 3151 3150 3150 3149 3149 3148 3147 3146 3146 3145 3144 3144 3143 3142 3141 3141 3140 3139 3138 3137 3137 3136 3135 3134 3133 3133 3132
3152 3153 3153 3154 3154 3154 3154 3155 3155 3155 3156 3156 3156 3157 3157 3157 3157 3157 3157 3157 3157 3157 3157 3157 3157 3157 3157 3157 3157 3156 3156 3156 3156 3155 3155 3155 3155 3155 3154 3154 3154 3153 3153 3152 3152 3152 3152 3151 3151 3151 3150 3150 3150 3149 3149 3148 3147 3146 3146 3145 3145 3144 3144 3143 3143 3142 3141 3141 3140 3139 3138 3138 3137 3136 3135 3134 3134 3133 3132 3131 3130 3129 3128 3127 3126
3149 3150 3150 3151 3151 3151 3152 3152 3152 3152 3153 3153 3154 3154 3154 3155 3155 3155 3155 3156 3156 3156 3156 3156 3155 3155 3155 3155 3155 3155 3154 3154 3154 3154 3153 3153 3153 3152 3152 3151 3151 3150 3150 3149 3149 3148 3148 3148 3147 3147 3146 3145 3145 3144 3144 3143 3142 3142 3141 3140 3139 3139 3138 3138 3137 3137 3137 3136 3135 3135 3134 3133 3132 3131 3130 3130 3129 3128 3127 3126 3125 3124 3123 3122 3121
3147 3147 3148 3148 3148 3148 3149 3149 3149 3149 3149 3149 3150 3150 3151 3152 3152 3152 3153 3153 3153 3153 3153 3153 3153 3153 3153 3153 3153 3152 3152 3152 3151 3151 3151 3150 3150 3150 3149 3149 3148 3148 3147 3147 3146 3146 3145 3144 3144 3143 3142 3141 3141 3140 3139 3138 3138 3137 3136 3135 3134 3134 3133 3133 3132 3132 3131 3131 3130 3130 3129 3128 3127 3127 3126 3125 3124 3123 3122 3121 3120 3119 3118 3117 3116
3144 3145 3145 3145 3146 3146 3146 3146 3146 3146 3146 3146 3146 3147 3147 3148 3148 3149 3149 3150 3150 3150 3150 3150 3150 3150 3150 3150 3150 3150 3149 3149 3149 3148 3148 3147 3147 3147 3146 3146 3145 3145 3144 3144 3143 3143 3142 3141 3140 3139 3138 3138 3137 3136 3135 3134 3133 3132 3132 3131 3130 3129 3129 3128 3127 3127 3127 3126 3125 3125 3124 3123 3123 3122 3121 3120 3119 3118 3117 3116 3115 3114 3113 3112 3111
3141 3141 3142 3142 3142 3142 3143 3143 3143 3144 3144 3144 3144 3144 3144 3144 3145 3145 3145 3146 3146 3147 3147 3147 3147 3147 3147 3146 3146 3146 3146 3145 3145 3145 3144 3144 3143 3143 3142 3142 3142 3141 3141 3140 3140 3139 3139 3138 3137 3136 3135 3134 3133 3132 3131 3130 3129 3128 3127 3127 3126 3125 3125 3124 3123 3123 3122 3121 3121 3120 3119 3118 3118 3117 3116 3115 3114 3112 3111 3110 3110 3109 3107 3106 3105
3136 3137 3138 3138 3138 3139 3139 3139 3139 3140 3140 3141 3141 3141 3141 3141 3141 3142 3142 3142 3142 3143 3143 3143 3143 3144 3143 3143 3143 3143 3142 3142 3141 3141 3140 3140 3139 3139 3138 3138 3137 3137 3136 3136 3136 3135 3134 3134 3133 3131 3130 3129 3128 3127 3126 3125 3124 3123 3123 3122 3121 3121 3120 3119 3119 3118 3117 3116 3115 3115 3114 3113 3112 3111 3110 3109 3108 3107 3106 3105 3104 3103 3102 3100 3099
3133 3133 3134 3134 3134 3135 3135 3135 3135 3135 3136 3137 3137 3137 3137 3138 3138 3138 3138 3138 3138 3138 3138 3139 3139 3139 3139 3139 3139 3139 3138 3138 3137 3137 3136 3136 3135 3135 3134 3133 3133 3132 3132 3131 3131 3130 3129 3128 3127 3126 3125 3124 3123 3122 3121 3120 3119 3118 3118 3117 3116 3116 3115 3114 3113 3112 3111 3111 3110 3109 3108 3107 3106 3105 3104 3103 3102 3101 3100 3099 3097 3096 3095 3094 3093
3129 3129 3130 3130 3130 3130 3131 3131 3131 3131 3131 3132 3132 3133 3133 3134 3134 3134 3135 3135 3135 3134 3134 3134 3135 3135 3135 3135 3134 3134 3133 3133 3132 3132 3132 3132 3131 3131 3130 3129 3128 3128 3127 3126 3125 3124 3123 3122 3121 3120 3119 3118 3117 3116 3115 3114 3114 3113 3112 3112 3111 3110 3109 3109 3108 3107 3106 3105 3104 3103 3102 3101 3100 3099 3098 3097 3096 3095 3094 3093 3091 3090 3089 3088 3086
3125 3125 3125 3125 3125 3126 3126 3126 3127 3127 3127 3127 3127 3127 3128 3128 3129 3129 3130 3130 3130 3130 3130 3130 3130 3130 3130 3129 3129 3129 3128 3128 3127 3127 3127 3126 3126 3126 3125 3125 3124 3123 3122 3121 3120 3119 3118 3117 3116 3115 3114 3113 3112 3111 3110 3109 3109 3108 3107 3107 3106 3105 3104 3103 3102 3102 3101 3100 3099 3098 3097 3096 3095 3094 3093 3091 3090 3089 3088 3087 3086 3085 3083 3082 3081
3120 3120 3120 3121 3121 3121 3121 3122 3122 3122 3122 3122 3122 3122 3122 3123 3123 3124 3124 3124 3124 3125 3125 3125 3125 3125 3124 3124 3124 3124 3123 3123 3122 3122 3121 3121 3121 3121 3120 3120 3119 3118 3116 3115 3114 3113 3112 3111 3110 3109 3108 3108 3107 3106 3105 3105 3104 3104 3103 3102 3101 3100 3099 3098 3097 3096 3095 3094 3093 3092 3091 3090 3089 3088 3087 3086 3084 3083 3082 3081 3080 3079 3078 3076 3075
3115 3116 3116 3116 3116 3116 3117 3117 3117 3117 3118 3118 3118 3118 3118 3118 3118 3118 3118 3119 3119 3119 3119 3119 3119 3119 3119 3119 3119 3118 3118 3117 3117 3117 3117 3117 3116 3116 3115 3114 3113 3112 3111 3110 3109 3108 3107 3106 3105 3105 3104 3103 3102 3102 3101 3100 3100 3099 3098 3097 3096 3095 3094 3093 3092 3091 3090 3089 3088 3086 3085 3084 3083 3082 3081 3080 3079 3077 3076 3075 3074 3073 3072 3070 3069
3111 3111 3111 3111 3111 3112 3112 3113 3113 3113 3113 3114 3114 3114 3114 3114 3114 3114 3114 3114 3114 3115 3114 3114 3113 3114 3114 3114 3114 3113 3113 3112 3112 3113 3113 3112 3111 3111 3110 3109 3108 3107 3106 3105 3104 3103 3102 3102 3101 3100 3099 3098 3098 3097 3096 3095 3095 3094 3093 3092 3091 3090 3089 3088 3087 3086 3084 3083 3082 3081 3080 3079 3078 3077 3076 3074 3073 3072 3070 3069 3068 3067 3066 3065 3063
3108 3108 3107 3107 3107 3107 3108 3108 3108 3109 3109 3110 3110 3110 3110 3110 3110 3110 3110 3110 3110 3110 3110 3109 3109 3109 3108 3108 3108 3108 3107 3107 3107 3107 3107 3107 3106 3106 3105 3104 3103 3102 3101 3100 3099 3098 3097 3096 3096 3095 3094 3094 3093 3092 3091 3090 3089 3089 3088 3087 3086 3085 3084 3083 3082 3081 3079 3078 3077 3076 3075 3073 3072 3071 3070 3068 3067 3066 3065 3063 3062 3061 3060 3059 3058
3103 3104 3104 3104 3104 3104 3104 3103 3104 3104 3104 3104 3105 3105 3105 3105 3106 3106 3106 3105 3105 3105 3105 3105 3105 3104 3104 3104 3103 3103 3102 3102 3102 3102 3101 3101 3101 3101 3100 3099 3098 3097 3096 3095 3094 3093 3092 3091 3091 3090 3090 3089 3088 3087 3086 3085 3084 3083 3082 3081 3080 3079 3078 3078 3076 3075 3074 3073 3072 3071 3069 3068 3066 3065 3064 3063 3061 3060 3059 3058 3056 3055 3054 3053 3052
3099 3099 3099 3099 3099 3099 3099 3099 3099 3099 3099 3099 3099 3100 3100 3100 3100 3101 3101 3100 3100 3100 3100 3100 3100 3100 3100 3100 3099 3098 3098 3098 3097 3097 3096 3096 3096 3096 3095 3094 3093 3092 3091 3090 3089 3088 3088 3087 3086 3086 3085 3084 3083 3082 3081 3080 3079 3078 3077 3076 3075 3074 3073 3072 3071 3070 3069 3068 3066 3065 3064 3062 3061 3059 3058 3057 3056 3054 3053 3052 3051 3050 3049 3047 3046